Weather in Podvalye

Russia / Samara Oblast     53°41′00″N   48°50′05″E
temp.,
°C
wind,
m/s
gust,
m/s
humid.,
%
clouds,
%
prec.,
mm/h
press.,
hPa
HPBL,
m
28 february, sun
sun2801:00−15nnw7139099 0.0 1004428
04:00−16nnw7139098 0.1 1006397
07:00−18nw5139297 0.0 1007332
10:00−16nw6129188 0.0 1009352
13:00−14nnw6119074 0.0 1010429
16:00−13nnw6118882 0.0 1011496
19:00−16nnw5119190 0.0 1014326
22:00−16nnw499392 0.0 1016217
1 march, mon
mon101:00−18nw349688 0.0 101875
04:00−19nw349683 0.0 102079
07:00−20nw349765 0.0 102163
10:00−17nnw379242 0.0 1023269
13:00−13nw358674 0.0 1022407
16:00−11nw258877 0.0 1023459
19:00−16wsw129570 0.0 102220
22:00−15sw339750 0.0 102145
2 march, tue
tue201:00−15sw479592 0.0 1018142
04:00−12sw5119596 0.0 1014263
07:00−8sw71494100 0.3 1010452
10:00−4sw81395100 1.3 1007690
13:00−2sw71295100 0.9 1003677
16:000sw61198100 2.6 1001666
19:000wnw5996100 1.2 999509
22:00−4wnw5109370 1.2 1000209
3 march, wed
wed301:00−4wnw5119254 0.1 1000298
04:00−4wnw5119377 0.3 1001354
07:00−5nw5129196 0.1 1002404
10:00−3nw6119189 0.2 1003599
13:00−2nnw589099 0.1 1004690
16:00−2nw589299 0.3 1005668
19:00−3nw379699 0.4 1007318
22:00−6nnw5138989 0.5 1010434
4 march, thu
thu401:00−8nw5119241 0.0 1011300
04:00−9nw5109156 0.1 1013257
07:00−11wnw499322 0.0 1014180
10:00−8w5109038 0.0 1014351
13:00−5wsw6118995 0.0 1013560
16:00−2wsw8138595 0.0 1011793
19:00−3wsw81686100 0.0 1009743
22:00−3wsw91885100 0.0 1008659